Regional Weather Roundup
Issued by NWS

Home | Current Version | Previous Version | Graphics & Text | Print | Product List | Glossary On
Versions: 1 2 3 4 5 6 7 8 9 10 11 12 13 14 15 16 17 18 19 20 21 22 23 24 25 26 27
000
ASUS45 KBOI 281910
RWRID

IDAHO REGIONAL WEATHER ROUNDUP
NATIONAL WEATHER SERVICE BOISE ID
100 PM MDT FRI APR 28 2017

NOTE: "FAIR" INDICATES FEW OR NO CLOUDS BELOW 12000 FEET
WITH NO SIGNIFICANT WEATHER AND/OR OBSTRUCTIONS TO VISIBILITY

IDZ012-014-282000-
SOUTHWEST IDAHO


CITY           SKY/WX    TMP DP  RH WIND       PRES   REMARKS
BOISE          MOSUNNY   53  31  42 NW25G32   30.07F
CALDWELL       SUNNY     53  31  42 NW17G24   30.12S
MOUNTAIN HOME  SUNNY     53  28  38 NW28G36   30.04S
$$

IDZ016-017-282000-
SOUTHCENTRAL IDAHO


CITY           SKY/WX    TMP DP  RH WIND       PRES   REMARKS
BURLEY         MOSUNNY   46  25  43 W10G18    29.98S
JEROME         MOSUNNY   48  24  39 SW15G23   30.01R
TWIN FALLS     MOSUNNY   48  28  46 W15       30.01S
$$

IDZ019>023-282000-
SOUTHEAST IDAHO


CITY           SKY/WX    TMP DP  RH WIND       PRES   REMARKS
IDAHO FALLS    CLOUDY    45  28  51 N17G26    29.93S
POCATELLO      CLOUDY    43  30  60 NW5       29.97R
REXBURG        CLOUDY    46  23  40 NE15G22   29.91S
$$

IDZ006-010-011-018-031-032-282000-
CENTRAL IDAHO MOUNTAINS


CITY           SKY/WX    TMP DP  RH WIND       PRES   REMARKS
MCCALL         PTSUNNY   41  29  62 W13       30.07S
HAILEY         MOSUNNY   46  16  29 W13G21    29.97S
STANLEY          N/A     38  15  39 NW9       30.03S WCI  31
SALMON         CLOUDY    48  21  34 NW9       30.03S
CHALLIS        CLOUDY    46  19  34 NE13      30.02S
$$

IDZ002-004-006-007-026-282000-
NORTHERN IDAHO


CITY           SKY/WX    TMP DP  RH WIND       PRES   REMARKS
LEWISTON       CLOUDY    54  33  45 NW9       30.20R
LOWELL           N/A     45  38  76 S7        30.25R
COEUR D`ALENE  CLOUDY    46  36  68 S10       30.18R
MULLAN PASS    FOG       33  31  92 VRB3      30.09R VSB<1/4
$$




USA.gov is the U.S. government's official web portal to all federal, state and local government web resources and services.